Location: Kikino
(54.4440°N, 112.0940°W)
Time: 15:16:26
(UTC+00:00)

AO-27 - Pass Details

Date: 01 December 2023
Orbit: 784 x 797 km, 98.8° (Epoch: 28 February)

Event Time Altitude Azimuth Distance (km) Brightness Sun altitude
Exits shadow 01:26:01 13° 21° (NNE) 2,149 9.6 -18.8°
Drops below altitude 10° 01:27:07 10° 10° (N) 2,378 9.9 -18.9°
Sets 01:30:16 0° 351° (N) 3,314 10.9 -19.4°
